Home > Weather > Watford > Past weeks

Flag for United Kingdom Past Weather in Watford, England, United Kingdom — Yesterday and Last 2 Weeks

Now
54 °F

Mostly cloudy.


Feels Like: 51 °F
Forecast: 42 / 66 °F
Wind: 9 mph from North

Location: Northolt

Current Time: May 25, 2016 at 2:10:15 PM

Latest Report: May 25, 2016 at 12:50 PM


Visibility: N/A

Pressure: 30.04 "Hg

Humidity: 67%

Dew Point: 43 °F

Location of WatfordLocation

Past Weather in Watford — Graph

°F

Watford Temperature Yesterday

Maximum temperature yesterday: 63 °F (at 4:50 PM)
Minimum temperature yesterday: 43 °F (at 4:50 AM)
Average temperature yesterday: 53 °F

High & Low Weather Summary for the Past Weeks

 TemperatureHumidityPressure
High75 °F (May 12, 3:50 PM)100% (May 11, 8:50 AM)30.21 "Hg (May 11, 8:50 AM)
Low37 °F (May 15, 4:50 AM)39% (May 12, 3:50 PM)29.56 "Hg (May 12, 3:50 AM)
Average56 °F74%29.90 "Hg
* Reported May 10 11:50 AM — May 25 11:50 AM, Watford, Weather by CustomWeather, © 2016

Note: Actual official high and low records may vary slightly from our data, if they occured in-between our weather recording intervals... More about our weather records

Advertising

Watford Weather History for the Previous 24 Hours

Scroll right to see more
 ConditionsComfort  
Time TempWeatherWind HumidityBarometerVisibility
11:50 AM
Wed, May 25
52 °FMostly cloudy.9 mph72%30.04 "HgN/A
10:50 AM50 °FLight rain. Broken clouds.8 mph82%30.07 "HgN/A
9:50 AM50 °FLight rain. More clouds than sun.8 mph76%30.07 "HgN/A
8:50 AM50 °FMore clouds than sun.7 mph71%30.07 "HgN/A
7:50 AM48 °FMore clouds than sun.9 mph76%30.07 "HgN/A
6:50 AM48 °FPartly sunny.10 mph76%30.07 "HgN/A
5:50 AM48 °FOvercast.7 mph76%30.07 "HgN/A
4:50 AM48 °FOvercast.9 mph66%30.07 "HgN/A
3:50 AM48 °FOvercast.10 mph66%30.07 "HgN/A
2:50 AM48 °FOvercast.10 mph66%30.09 "HgN/A
1:50 AM48 °FOvercast.7 mph71%30.09 "HgN/A
12:50 AM48 °FPassing clouds.8 mph66%30.12 "HgN/A
11:50 PM
Tue, May 24
48 °FPassing clouds.6 mph71%30.12 "HgN/A
10:50 PM50 °FPassing clouds.8 mph67%30.12 "HgN/A
9:50 PM50 °FPassing clouds.15 mph67%30.12 "HgN/A
8:50 PM54 °FPassing clouds.13 mph63%30.09 "HgN/A
7:50 PM57 °FPassing clouds.14 mph55%30.09 "HgN/A
6:50 PM59 °FPassing clouds.13 mph51%30.09 "HgN/A
5:50 PM61 °FPassing clouds.15 mph48%30.09 "HgN/A
4:50 PM63 °FScattered clouds.15 mph45%30.12 "HgN/A
3:50 PM61 °FPartly sunny.13 mph48%30.12 "HgN/A
2:50 PM61 °FBroken clouds.15 mph45%30.12 "HgN/A
Weather by CustomWeather, © 2016

See weather overviewHow to use our weather pages